Погода в Денау

Узбекистан     38°16′29″N   67°53′46″E
темп.,
°C
ветер,
м/с
пор.,
м/с
влажн.,
%
обл.,
%
осадки,
мм/ч
давл.,
гПа
погр.,
м
3 марта, ср
ср323:00+12ссв354996 0.0 1023167
02:00+10ссз5665100 0.0 1022195
05:00+9с237398 0.0 102283
08:00+10ссв127195 0.0 1022122
11:00+11сз126397 0.0 1022611
14:00+14зсз335389 0.0 10211183
17:00+14с325471 0.1 10201110
20:00+10св34708 0.0 102071
4 марта, чт
чт423:00+9св34725 0.0 102070
02:00+8св34680 0.0 101942
05:00+8св346232 0.0 101862
08:00+10ссв355495 0.0 1018100
11:00+15с664281 0.0 1018879
14:00+18ссз443532 0.0 10171064
17:00+18з333417 0.0 10171363
20:00+12ссв12565 0.1 102023
5 марта, пт
пт523:00+11ссв016827 0.6 102224
02:00+10всв126967 0.4 102436
05:00+9всв128980 3.9 1025118
08:00+9ююз119077 2.8 1026145
11:00+12юз226574 2.9 1026764
14:00+15ссв545827 0.0 10231000
17:00+15св775414 0.0 1020832
20:00+12св466621 0.0 1020111
6 марта, сб
сб623:00+11св465461 0.0 101787
02:00+11св5743100 0.0 1014107
05:00+11св4638100 0.0 101079
08:00+13в2239100 0.0 100840
11:00+18ссв5826100 0.0 1010633
14:00+20ссз5526100 0.0 10101869
17:00+14ююз81056100 0.1 10141059
20:00+9ю5786100 1.9 1017449
7 марта, вс
вс723:00+8ююз81171100 2.3 1019730
02:00+6ю5775100 0.0 1019740
05:00+6ююв3571100 0.2 1021694
08:00+6с1171100 0.0 1022366
11:00+7сз2173100 0.1 1022628
14:00+8ссв2269100 0.1 1020710
17:00+10с335891 0.1 1018736
20:00+8ссв34690 0.0 101965